Columbia Airport, CA

9:42 PM PST on December 05, 2019 (GMT -0800)
Columbia Airport

Weather History for KO22 - November, 2019

Change the Weather History Date:

Friday, November 15, 2019

  Actual Average (KMOD) Record (KMOD)
Temperature  
Mean Temperature 54 °F -  
Max Temperature 66 °F 63 °F 78 °F (1995)
Min Temperature 42 °F 43 °F 27 °F (1938)
Degree Days  
Heating Degree Days 11    
Growing Degree Days 4 (Base 50)    
Moisture  
Dew Point 42 °F    
Average Humidity 74    
Maximum Humidity 93    
Minimum Humidity 42    
Precipitation  
Precipitation 0.00 in - - ()
Sea Level Pressure  
Sea Level Pressure 30.16 in    
Wind  
Wind Speed 1 mph ()    
Max Wind Speed 7 mph    
Max Gust Speed -    
Visibility 10.0 miles    
Events      
Averages and records for this station are not official NWS values.
T = Trace of Precipitation, MM = Missing Value Source: Averaged Metar Reports

Daily Weather History Graph

Daily Weather History Graph

Search for Another Location

Airport or City:

Astronomy

Nov. 15, 2019 Rise Set
Actual Time 6:42 AM PST 4:49 PM PST
Civil Twilight 6:14 AM PST 5:17 PM PST
Nautical Twilight 5:42 AM PST 5:49 PM PST
Astronomical Twilight 5:11 AM PST 6:20 PM PST
Moon 7:31 PM PST (11/15) 9:42 AM PST (11/15)
Length of Visible Light 11h 03m
Length of Day
10h 07m
Waning Gibbous, 89% of the Moon is Illuminated
Nov 15
Waning Gibbous
Nov 19
Last Quarter
Nov 26
New
Dec 3
First Quarter
Dec 11
Full

Hourly Weather History & Observations

Time (PST) Temp. Dew Point Humidity Pressure Visibility Wind Dir Wind Speed Gust Speed Precip Events Conditions
12:15 AM 44.6 °F 41.0 °F 87% 30.15 in 10.0 mi Calm Calm - N/A   Partly Cloudy
12:35 AM 46.4 °F 41.0 °F 81% 30.15 in 10.0 mi Calm Calm - N/A   Scattered Clouds
12:55 AM 44.6 °F 41.0 °F 87% 30.15 in 10.0 mi Calm Calm - N/A   Mostly Cloudy
1:15 AM 44.6 °F 41.0 °F 87% 30.16 in 10.0 mi Calm Calm - N/A   Mostly Cloudy
1:35 AM 44.6 °F 41.0 °F 87% 30.16 in 10.0 mi Calm Calm - N/A   Mostly Cloudy
1:55 AM 44.6 °F 41.0 °F 87% 30.16 in 10.0 mi Calm Calm - N/A   Mostly Cloudy
2:15 AM 42.8 °F 41.0 °F 93% 30.16 in 10.0 mi Calm Calm - N/A   Scattered Clouds
2:35 AM 44.6 °F 41.0 °F 87% 30.16 in 10.0 mi Calm Calm - N/A   Partly Cloudy
2:55 AM 42.8 °F 39.2 °F 87% 30.15 in 10.0 mi Calm Calm - N/A   Clear
3:15 AM 42.8 °F 41.0 °F 93% 30.16 in 10.0 mi Calm Calm - N/A   Clear
3:35 AM 42.8 °F 39.2 °F 87% 30.16 in 10.0 mi Calm Calm - N/A   Clear
4:15 AM 42.8 °F 39.2 °F 87% 30.15 in 10.0 mi Calm Calm - N/A   Clear
4:35 AM 44.6 °F 41.0 °F 87% 30.16 in 10.0 mi Calm Calm - N/A   Clear
4:55 AM 42.8 °F 39.2 °F 87% 30.17 in 10.0 mi Calm Calm - N/A   Clear
5:15 AM 42.8 °F 39.2 °F 87% 30.18 in 10.0 mi Calm Calm - N/A   Clear
5:35 AM 44.6 °F 39.2 °F 81% 30.18 in 10.0 mi Calm Calm - N/A   Clear
5:55 AM 42.8 °F 39.2 °F 87% 30.18 in 10.0 mi Calm Calm - N/A   Clear
6:15 AM 42.8 °F 39.2 °F 87% 30.18 in 10.0 mi Calm Calm - N/A   Clear
6:35 AM 42.8 °F 39.2 °F 87% 30.19 in 10.0 mi Calm Calm - N/A   Partly Cloudy
6:55 AM 42.8 °F 39.2 °F 87% 30.19 in 10.0 mi Calm Calm - N/A   Mostly Cloudy
7:15 AM 42.8 °F 39.2 °F 87% 30.18 in 10.0 mi Calm Calm - N/A   Scattered Clouds
7:35 AM 44.6 °F 41.0 °F 87% 30.18 in 10.0 mi Calm Calm - N/A   Partly Cloudy
7:55 AM 46.4 °F 41.0 °F 81% 30.18 in 10.0 mi Calm Calm - N/A   Mostly Cloudy
8:15 AM 48.2 °F 41.0 °F 76% 30.18 in 10.0 mi Calm Calm - N/A   Scattered Clouds
8:35 AM 51.8 °F 41.0 °F 67% 30.19 in 10.0 mi Calm Calm - N/A   Clear
8:55 AM 53.6 °F 42.8 °F 67% 30.19 in 10.0 mi Calm Calm - N/A   Clear
9:15 AM 57.2 °F 42.8 °F 59% 30.19 in 10.0 mi Calm Calm - N/A   Clear
9:35 AM 60.8 °F 41.0 °F 48% 30.19 in 10.0 mi SSW 3.5 mph - N/A   Clear
9:55 AM 62.6 °F 42.8 °F 48% 30.20 in 10.0 mi Calm Calm - N/A   Clear
11:15 AM 62.6 °F 39.2 °F 42% 30.19 in 10.0 mi SW 4.6 mph - N/A   Clear
11:55 AM 64.4 °F 42.8 °F 45% 30.18 in 10.0 mi Calm Calm - N/A   Clear
12:15 PM 64.4 °F 44.6 °F 49% 30.17 in 10.0 mi Variable 3.5 mph - N/A   Clear
12:35 PM 64.4 °F 44.6 °F 49% 30.17 in 10.0 mi SW 3.5 mph - N/A   Clear
12:55 PM 64.4 °F 44.6 °F 49% 30.16 in 10.0 mi WSW 5.8 mph - N/A   Clear
1:15 PM 64.4 °F 44.6 °F 49% 30.15 in 10.0 mi Calm Calm - N/A   Clear
1:35 PM 66.2 °F 44.6 °F 46% 30.14 in 10.0 mi Variable 3.5 mph - N/A   Clear
1:55 PM 64.4 °F 42.8 °F 45% 30.13 in 10.0 mi Calm Calm - N/A   Clear
2:15 PM 66.2 °F 42.8 °F 43% 30.13 in 10.0 mi WSW 5.8 mph - N/A   Clear
2:35 PM 66.2 °F 44.6 °F 46% 30.13 in 10.0 mi Variable 4.6 mph - N/A   Clear
2:55 PM 66.2 °F 44.6 °F 46% 30.13 in 10.0 mi Variable 3.5 mph - N/A   Clear
3:15 PM 66.2 °F 44.6 °F 46% 30.13 in 10.0 mi WSW 5.8 mph - N/A   Clear
3:35 PM 64.4 °F 44.6 °F 49% 30.13 in 10.0 mi West 5.8 mph - N/A   Clear
3:55 PM 64.4 °F 44.6 °F 49% 30.13 in 10.0 mi West 6.9 mph - N/A   Clear
4:15 PM 62.6 °F 44.6 °F 52% 30.14 in 10.0 mi Variable 4.6 mph - N/A   Clear
4:35 PM 60.8 °F 46.4 °F 59% 30.14 in 10.0 mi Variable 4.6 mph - N/A   Clear
4:55 PM 59.0 °F 46.4 °F 63% 30.14 in 10.0 mi West 4.6 mph - N/A   Clear
5:15 PM 57.2 °F 46.4 °F 67% 30.14 in 10.0 mi Variable 3.5 mph - N/A   Clear
5:35 PM 55.4 °F 46.4 °F 72% 30.14 in 10.0 mi Calm Calm - N/A   Clear
5:55 PM 53.6 °F 44.6 °F 72% 30.14 in 10.0 mi Calm Calm - N/A   Clear
6:15 PM 50.0 °F 44.6 °F 82% 30.14 in 10.0 mi Calm Calm - N/A   Clear
6:55 PM 50.0 °F 44.6 °F 82% 30.14 in 10.0 mi Calm Calm - N/A   Mostly Cloudy
7:15 PM 48.2 °F 42.8 °F 82% 30.13 in 10.0 mi Calm Calm - N/A   Mostly Cloudy
7:35 PM 48.2 °F 44.6 °F 87% 30.14 in 10.0 mi Calm Calm - N/A   Mostly Cloudy
7:55 PM 48.2 °F 42.8 °F 82% 30.14 in 10.0 mi Variable 4.6 mph - N/A   Mostly Cloudy
8:15 PM 46.4 °F 42.8 °F 87% 30.15 in 10.0 mi Calm Calm - N/A   Partly Cloudy
8:35 PM 46.4 °F 42.8 °F 87% 30.15 in 10.0 mi Calm Calm - N/A   Clear
8:55 PM 46.4 °F 42.8 °F 87% 30.15 in 10.0 mi Calm Calm - N/A   Clear
9:15 PM 44.6 °F 42.8 °F 93% 30.14 in 10.0 mi Calm Calm - N/A   Clear
9:35 PM 44.6 °F 41.0 °F 87% 30.15 in 10.0 mi Calm Calm - N/A   Clear
9:55 PM 44.6 °F 42.8 °F 93% 30.16 in 10.0 mi Calm Calm - N/A   Clear
10:15 PM 44.6 °F 41.0 °F 87% 30.16 in 10.0 mi Calm Calm - N/A   Clear
10:35 PM 42.8 °F 41.0 °F 93% 30.16 in 10.0 mi Calm Calm - N/A   Clear
10:55 PM 42.8 °F 41.0 °F 93% 30.16 in 10.0 mi Calm Calm - N/A   Clear
11:15 PM 44.6 °F 42.8 °F 93% 30.16 in 10.0 mi Calm Calm - N/A   Clear
11:35 PM 42.8 °F 41.0 °F 93% 30.16 in 10.0 mi Calm Calm - N/A   Clear
11:55 PM 42.8 °F 41.0 °F 93% 30.16 in 10.0 mi Calm Calm - N/A   Clear